TimeEDT,TemperatureF,Dew PointF,Humidity,Sea Level PressureIn,VisibilityMPH,Wind Direction,Wind SpeedMPH,Gust SpeedMPH,PrecipitationIn,Events,Conditions,WindDirDegrees,DateUTC
12:54 AM,64.0,60.1,87,30.17,10.0,Calm,Calm,-,N/A,,Clear,0,2013-09-07 04:54:00
1:54 AM,62.1,57.9,86,30.15,10.0,Calm,Calm,-,N/A,,Clear,0,2013-09-07 05:54:00
2:54 AM,63.0,57.9,84,30.14,10.0,Calm,Calm,-,N/A,,Clear,0,2013-09-07 06:54:00
3:54 AM,61.0,57.0,87,30.14,10.0,Calm,Calm,-,N/A,,Clear,0,2013-09-07 07:54:00
4:54 AM,60.1,57.0,90,30.14,10.0,Calm,Calm,-,N/A,,Clear,0,2013-09-07 08:54:00
5:54 AM,60.1,55.9,86,30.14,10.0,Calm,Calm,-,N/A,,Partly Cloudy,0,2013-09-07 09:54:00
6:54 AM,60.1,57.0,90,30.14,10.0,Calm,Calm,-,N/A,,Mostly Cloudy,0,2013-09-07 10:54:00
7:54 AM,60.1,57.0,90,30.14,10.0,Calm,Calm,-,N/A,,Mostly Cloudy,0,2013-09-07 11:54:00
8:54 AM,68.0,60.1,76,30.14,10.0,SSW,4.6,-,N/A,,Mostly Cloudy,200,2013-09-07 12:54:00
9:54 AM,73.0,57.9,59,30.14,10.0,SSW,8.1,-,N/A,,Mostly Cloudy,210,2013-09-07 13:54:00
10:54 AM,75.0,57.0,53,30.14,10.0,SW,8.1,-,N/A,,Scattered Clouds,220,2013-09-07 14:54:00
11:54 AM,77.0,57.0,50,30.12,10.0,SW,6.9,-,N/A,,Scattered Clouds,220,2013-09-07 15:54:00
12:54 PM,78.1,57.9,50,30.10,10.0,WSW,8.1,-,N/A,,Scattered Clouds,240,2013-09-07 16:54:00
1:54 PM,78.1,57.9,50,30.07,10.0,SW,9.2,-,N/A,,Mostly Cloudy,230,2013-09-07 17:54:00
2:54 PM,79.0,59.0,50,30.05,10.0,SSW,9.2,-,N/A,,Mostly Cloudy,210,2013-09-07 18:54:00
3:54 PM,78.1,60.1,54,30.03,10.0,Calm,Calm,-,N/A,,Mostly Cloudy,0,2013-09-07 19:54:00
4:54 PM,80.1,61.0,52,30.01,10.0,SSW,6.9,-,N/A,,Overcast,210,2013-09-07 20:54:00
5:54 PM,80.1,60.1,50,30.00,10.0,WSW,9.2,-,N/A,,Mostly Cloudy,250,2013-09-07 21:54:00
6:54 PM,78.1,61.0,56,30.00,10.0,West,6.9,-,N/A,,Mostly Cloudy,260,2013-09-07 22:54:00
7:54 PM,73.0,63.0,71,29.99,10.0,South,3.5,-,N/A,,Mostly Cloudy,170,2013-09-07 23:54:00
8:54 PM,70.0,63.0,78,30.00,10.0,Calm,Calm,-,N/A,,Mostly Cloudy,0,2013-09-08 00:54:00
9:54 PM,68.0,63.0,84,30.00,10.0,SE,4.6,-,N/A,,Scattered Clouds,140,2013-09-08 01:54:00
10:54 PM,68.0,63.0,84,29.99,10.0,Calm,Calm,-,N/A,,Scattered Clouds,0,2013-09-08 02:54:00
11:54 PM,66.9,62.1,84,29.98,10.0,Calm,Calm,-,N/A,,Partly Cloudy,0,2013-09-08 03:54:00